Terminal Aerodrome Forecast
Issued by NWS Raleigh/Durham, NC

Home | Current Version | Previous Version | Text Only | Print | Product List | Glossary On
Versions: 1 2 3 4 5 6 7 8 9 10 11 12 13 14 15 16 17 18 19 20 21 22 23 24 25 26 27 28 29 30 31 32 33 34 35 36 37 38
000
FTUS42 KRAH 030154 AAA
TAFRDU
TAF AMD
KRDU 030154Z 0302/0324 VRB03KT P6SM FEW070 BKN250
      TEMPO 0309/0313 6SM BR SCT010
     FM031500 22008KT P6SM SCT035 SCT250=

USA.gov is the U.S. government's official web portal to all federal, state and local government web resources and services.